TimeEDT,TemperatureF,Dew PointF,Humidity,Sea Level PressureIn,VisibilityMPH,Wind Direction,Wind SpeedMPH,Gust SpeedMPH,PrecipitationIn,Events,Conditions,WindDirDegrees,DateUTC
1:56 AM,63.0,60.1,90,29.96,10.0,SSW,15.0,-,N/A,,Clear,200,2012-10-15 05:56:00
2:56 AM,63.0,61.0,93,29.94,10.0,SSW,16.1,26.5,N/A,,Clear,210,2012-10-15 06:56:00
3:56 AM,63.0,61.0,93,29.92,10.0,SSW,15.0,21.9,N/A,,Clear,210,2012-10-15 07:56:00
4:56 AM,64.0,61.0,90,29.91,10.0,SSW,13.8,23.0,N/A,,Clear,210,2012-10-15 08:56:00
5:56 AM,63.0,62.1,97,29.90,10.0,SSW,12.7,-,N/A,,Scattered Clouds,200,2012-10-15 09:56:00
6:56 AM,63.0,62.1,97,29.88,10.0,SSW,12.7,21.9,N/A,,Overcast,200,2012-10-15 10:56:00
8:56 AM,66.0,63.0,90,29.86,10.0,SSW,15.0,27.6,N/A,,Clear,200,2012-10-15 12:56:00
9:56 AM,68.0,63.0,84,29.86,10.0,SSW,16.1,27.6,N/A,,Clear,210,2012-10-15 13:56:00
10:56 AM,68.0,63.0,84,29.84,10.0,SSW,12.7,24.2,N/A,,Overcast,200,2012-10-15 14:56:00
11:56 AM,68.0,63.0,84,29.83,10.0,SSW,15.0,21.9,N/A,,Overcast,200,2012-10-15 15:56:00
12:56 PM,68.0,63.0,84,29.80,10.0,SSW,15.0,23.0,N/A,,Overcast,210,2012-10-15 16:56:00
2:56 PM,66.9,64.0,90,29.76,10.0,SSW,13.8,21.9,N/A,,Scattered Clouds,200,2012-10-15 18:56:00
3:56 PM,66.0,62.1,87,29.75,10.0,SSW,12.7,-,N/A,,Clear,200,2012-10-15 19:56:00
4:56 PM,64.9,63.0,93,29.72,10.0,South,11.5,23.0,N/A,,Mostly Cloudy,190,2012-10-15 20:56:00
5:10 PM,64.4,62.6,94,29.72,9.0,South,11.5,20.7,N/A,,Mostly Cloudy,190,2012-10-15 21:10:00
5:56 PM,64.9,63.0,93,29.72,10.0,South,10.4,-,N/A,,Clear,190,2012-10-15 21:56:00
6:14 PM,64.4,62.6,94,29.71,10.0,South,12.7,-,N/A,,Scattered Clouds,190,2012-10-15 22:14:00
6:26 PM,64.4,62.6,94,29.71,10.0,SSW,11.5,-,N/A,,Mostly Cloudy,200,2012-10-15 22:26:00
7:56 PM,64.9,63.0,93,29.70,10.0,SSW,13.8,21.9,N/A,,Partly Cloudy,210,2012-10-15 23:56:00
8:56 PM,64.9,61.0,87,29.68,10.0,SSW,10.4,-,N/A,,Scattered Clouds,200,2012-10-16 00:56:00
9:56 PM,64.0,61.0,90,29.67,10.0,SSW,8.1,-,N/A,,Overcast,210,2012-10-16 01:56:00
10:56 PM,63.0,62.1,97,29.65,10.0,SSW,10.4,-,0.00,Rain,Light Rain,200,2012-10-16 02:56:00
11:17 PM,62.6,62.6,100,29.64,10.0,SSW,6.9,-,0.00,Rain,Light Rain,200,2012-10-16 03:17:00
11:38 PM,62.6,62.6,100,29.63,10.0,SW,8.1,-,0.00,,Overcast,220,2012-10-16 03:38:00
11:48 PM,62.6,62.6,100,29.63,10.0,SSW,8.1,-,0.00,,Overcast,210,2012-10-16 03:48:00
11:54 PM,62.6,62.6,100,29.62,9.0,SSW,5.8,-,0.00,Rain,Light Rain,210,2012-10-16 03:54:00
11:55 PM,63.0,62.1,97,29.62,8.0,SSW,5.8,-,0.01,Rain,Light Rain,210,2012-10-16 03:55:00